Simultaneous Nadir Overpasses (SNOs) Predictions

Prediction of SNOs between METOP-A and TERRA Satellite Orbit:

Table of predicted SNOs for the next 14.0 days since TLE Epoch: 6/20/2020
Index Date (METOP-A) Time (METOP-A) Lat,Lon (METOP-A) SZA (METOP-A ) Date (TERRA) Time (TERRA) Lat,Lon (TERRA) SZA (TERRA ) Distance(km) Time Diff (sec)
1 06/21/2020 02:26:31 81.41,-167.14 61.08 06/21/2020 02:27:14 81.41,-167.28 61.09 2.38 43
2 06/21/2020 03:17:11 -81.40, 0.42 118.90 06/21/2020 03:16:41 -81.41, 0.26 118.93 2.73 30
3 06/23/2020 22:00:52 81.41,-100.90 61.07 06/23/2020 22:01:28 81.42,-100.76 61.11 2.54 36
4 06/23/2020 22:51:32 -81.40, 66.68 118.90 06/23/2020 22:50:55 -81.41, 66.82 118.90 2.61 37
5 06/26/2020 17:35:14 81.41, -34.68 61.12 06/26/2020 17:35:44 81.40, -34.66 61.13 1.33 30
6 06/26/2020 18:25:54 -81.41, 132.92 118.85 06/26/2020 18:25:11 -81.40, 132.94 118.88 0.88 43
7 06/29/2020 13:09:35 81.41, 31.92 61.26 06/29/2020 13:09:59 81.40, 31.79 61.25 2.29 24
8 06/29/2020 14:00:15 -81.40,-160.47 118.71 06/29/2020 13:59:26 -81.40,-160.58 118.75 1.80 49
9 07/02/2020 08:43:56 81.41, 98.11 61.41 07/02/2020 08:44:13 81.40, 98.21 61.43 1.93 17




NCC Satellite Simultaneous Nadir Overpasses (SNOs) Prediction Service
